timestamp,surface_pressure_avg,surface_temp_avg,battery_voltage,lat,long
2020-09-27 00:09:01+00:00,253.1197,14.5,12.73,47.84626,-54.09684
2020-09-27 00:19:01+00:00,251.4314,14.5,12.73,47.84626,-54.09684
2020-09-27 00:29:01+00:00,249.2797,14.5,12.73,47.84626,-54.09684
2020-09-27 00:39:01+00:00,244.6081,14.49,12.73,47.84626,-54.09684
2020-09-27 00:49:01+00:00,241.4931,14.61,12.73,47.84626,-54.09684
2020-09-27 00:59:01+00:00,238.0881,14.7,12.73,47.84626,-54.09684
2020-09-27 01:09:01+00:00,237.7414,14.6,12.73,47.84626,-54.09684
2020-09-27 01:19:01+00:00,235.7247,14.6,12.73,47.84626,-54.09684
2020-09-27 01:29:01+00:00,232.7381,14.6,12.73,47.84626,-54.09684
2020-09-27 01:39:01+00:00,231.273,14.6,12.73,47.84626,-54.09684
2020-09-27 01:49:01+00:00,230.5864,14.6,12.73,47.84626,-54.09684
2020-09-27 01:59:01+00:00,228.6531,14.6,12.73,47.84626,-54.09684
2020-09-27 02:09:01+00:00,226.8897,14.6,12.73,47.84626,-54.09684
2020-09-27 02:19:01+00:00,225.0914,14.66,12.73,47.84626,-54.09684
2020-09-27 02:29:01+00:00,222.8848,14.7,12.73,47.84626,-54.09684
2020-09-27 02:39:01+00:00,220.4981,14.6,12.73,47.84626,-54.09684
2020-09-27 02:49:01+00:00,220.1364,14.6,12.73,47.84626,-54.09684
2020-09-27 02:59:01+00:00,220.5981,14.51,12.73,47.84626,-54.09684
2020-09-27 03:09:01+00:00,220.8064,14.5,12.73,47.84626,-54.09684
2020-09-27 03:19:01+00:00,221.6781,14.4,12.73,47.84626,-54.09684
2020-09-27 03:29:01+00:00,224.0098,14.3,12.73,47.84626,-54.09684
2020-09-27 03:39:01+00:00,223.9515,14.3,12.73,47.84626,-54.09684
2020-09-27 03:49:01+00:00,224.4531,14.3,12.73,47.84626,-54.09684
2020-09-27 03:59:01+00:00,228.0614,14.3,12.73,47.84626,-54.09684
2020-09-27 04:09:01+00:00,232.9015,14.34,12.73,47.84626,-54.09684
2020-09-27 04:19:01+00:00,235.3564,14.4,12.73,47.84626,-54.09684
2020-09-27 04:29:01+00:00,235.7631,14.48,12.73,47.84626,-54.09684
2020-09-27 04:39:01+00:00,238.5647,14.58,12.73,47.84626,-54.09684
2020-09-27 04:49:01+00:00,244.8048,14.6,12.73,47.84626,-54.09684
2020-09-27 04:59:01+00:00,249.7548,14.66,12.73,47.84626,-54.09684
2020-09-27 05:09:01+00:00,252.0647,14.6,12.73,47.84626,-54.09684
2020-09-27 05:19:01+00:00,256.4515,14.5,12.73,47.84626,-54.09684
2020-09-27 05:29:01+00:00,263.1731,14.52,12.73,47.84626,-54.09684
2020-09-27 05:39:01+00:00,266.1014,14.56,12.73,47.84626,-54.09684
2020-09-27 05:49:01+00:00,269.243,14.5,12.73,47.84626,-54.09684
2020-09-27 05:59:01+00:00,274.0881,14.48,12.73,47.84626,-54.09684
2020-09-27 06:09:01+00:00,279.6264,14.6,12.73,47.84626,-54.09684
2020-09-27 06:19:01+00:00,282.053,14.85,12.65,47.84626,-54.09684
2020-09-27 06:29:01+00:00,285.2847,14.87,12.65,47.84626,-54.09684
2020-09-27 06:39:01+00:00,290.6398,14.8,12.65,47.84626,-54.09684
2020-09-27 06:49:01+00:00,294.6981,14.77,12.65,47.84626,-54.09684
2020-09-27 06:59:01+00:00,296.6581,14.79,12.65,47.84626,-54.09684
2020-09-27 07:09:01+00:00,298.0714,14.8,12.65,47.84626,-54.09684
2020-09-27 07:19:01+00:00,301.0913,14.7,12.65,47.84626,-54.09684
2020-09-27 07:29:01+00:00,304.2646,14.65,12.65,47.84626,-54.09684
2020-09-27 07:39:01+00:00,306.1913,14.69,12.65,47.84626,-54.09684
2020-09-27 07:49:01+00:00,307.6964,14.8,12.65,47.84626,-54.09684
2020-09-27 07:59:01+00:00,309.908,14.88,12.65,47.84626,-54.09684
2020-09-27 08:09:01+00:00,311.5964,14.9,12.65,47.84626,-54.09684
2020-09-27 08:19:01+00:00,311.8231,14.9,12.65,47.84626,-54.09684
2020-09-27 08:29:01+00:00,314.0964,14.9,12.65,47.84626,-54.09684
2020-09-27 08:39:01+00:00,314.9398,14.9,12.65,47.84626,-54.09684
2020-09-27 08:49:01+00:00,313.8364,14.9,12.65,47.84626,-54.09684
2020-09-27 08:59:01+00:00,312.863,14.9,12.65,47.84626,-54.09684
2020-09-27 09:09:01+00:00,311.8347,14.8,12.65,47.84626,-54.09684
2020-09-27 09:19:01+00:00,310.2097,14.8,12.65,47.84626,-54.09684
2020-09-27 09:29:01+00:00,307.8514,14.7,12.65,47.84626,-54.09684
2020-09-27 09:39:01+00:00,306.693,14.7,12.65,47.84626,-54.09684
2020-09-27 09:49:01+00:00,305.4047,14.7,12.65,47.84626,-54.09684
2020-09-27 09:59:01+00:00,303.8881,14.7,12.65,47.84626,-54.09684
2020-09-27 10:09:01+00:00,301.6947,14.7,12.65,47.84626,-54.09684
2020-09-27 10:19:01+00:00,298.7164,14.7,12.73,47.84626,-54.09684
2020-09-27 10:29:01+00:00,293.6514,14.7,12.73,47.84626,-54.09684
2020-09-27 10:39:01+00:00,287.778,14.68,12.73,47.84626,-54.09684
2020-09-27 10:49:01+00:00,282.9264,14.66,12.73,47.84626,-54.09684
2020-09-27 10:59:01+00:00,278.7547,14.65,12.73,47.84626,-54.09684
2020-09-27 11:09:01+00:00,275.2614,14.66,12.73,47.84626,-54.09684
2020-09-27 11:19:01+00:00,269.748,14.6,12.97,47.84626,-54.09684
2020-09-27 11:29:01+00:00,262.8447,14.57,12.97,47.84626,-54.09684
2020-09-27 11:39:01+00:00,256.9398,14.58,12.97,47.84626,-54.09684
2020-09-27 11:49:01+00:00,253.9014,14.5,12.97,47.84626,-54.09684
2020-09-27 11:59:01+00:00,249.3297,14.5,12.97,47.84626,-54.09684
2020-09-27 12:09:01+00:00,242.4114,14.4,12.97,47.84626,-54.09684
2020-09-27 12:19:01+00:00,236.8514,14.38,13.6,47.84626,-54.09684
2020-09-27 12:29:01+00:00,233.718,14.4,13.6,47.84626,-54.09684
2020-09-27 12:39:01+00:00,230.8514,14.42,13.6,47.84626,-54.09684
2020-09-27 12:49:01+00:00,226.7131,14.4,13.6,47.84626,-54.09684
2020-09-27 12:59:01+00:00,224.8414,14.4,13.6,47.84626,-54.09684
2020-09-27 13:09:01+00:00,223.9331,14.4,13.6,47.84626,-54.09684
2020-09-27 13:19:01+00:00,220.9364,14.57,14.32,47.84626,-54.09684
2020-09-27 13:29:01+00:00,218.1648,14.5,14.32,47.84626,-54.09684
2020-09-27 13:39:01+00:00,216.5581,14.4,14.32,47.84626,-54.09684
2020-09-27 13:49:01+00:00,215.3548,14.4,14.32,47.84626,-54.09684
2020-09-27 13:59:01+00:00,211.2148,14.4,14.32,47.84626,-54.09684
2020-09-27 14:09:01+00:00,207.8565,14.54,14.32,47.84626,-54.09684
2020-09-27 14:19:01+00:00,208.1498,14.67,14.56,47.84626,-54.09684
2020-09-27 14:29:01+00:00,209.0581,14.7,14.56,47.84626,-54.09684
2020-09-27 14:39:01+00:00,208.4614,14.64,14.56,47.84626,-54.09684
2020-09-27 14:49:01+00:00,209.2681,14.7,14.56,47.84626,-54.09684
2020-09-27 14:59:01+00:00,210.8181,14.7,14.56,47.84626,-54.09684
2020-09-27 15:09:01+00:00,210.7298,14.7,14.56,47.84626,-54.09684
2020-09-27 15:19:01+00:00,210.6231,14.74,14.24,47.84626,-54.09684
2020-09-27 15:29:01+00:00,211.5598,14.8,14.24,47.84626,-54.09684
2020-09-27 15:39:01+00:00,211.1464,14.8,14.24,47.84626,-54.09684
2020-09-27 15:49:01+00:00,209.1765,14.8,14.24,47.84626,-54.09684
2020-09-27 15:59:01+00:00,211.7198,14.8,14.24,47.84626,-54.09684
2020-09-27 16:09:01+00:00,215.8464,14.8,14.24,47.84626,-54.09684
2020-09-27 16:19:01+00:00,216.6915,14.7,14.0,47.84626,-54.09684
2020-09-27 16:29:01+00:00,220.1231,14.7,14.0,47.84626,-54.09684
2020-09-27 16:39:01+00:00,226.2231,14.79,14.0,47.84626,-54.09684
2020-09-27 16:49:01+00:00,230.8898,14.8,14.0,47.84626,-54.09684
2020-09-27 16:59:01+00:00,233.5965,14.89,14.0,47.84626,-54.09684
2020-09-27 17:09:01+00:00,238.0431,14.9,14.0,47.84626,-54.09684
2020-09-27 17:19:01+00:00,242.2731,14.9,13.84,47.84626,-54.09684
2020-09-27 17:29:01+00:00,245.8681,14.9,13.84,47.84626,-54.09684
2020-09-27 17:39:01+00:00,249.9731,14.9,13.84,47.84626,-54.09684
2020-09-27 17:49:01+00:00,256.3181,14.96,13.84,47.84626,-54.09684
2020-09-27 17:59:01+00:00,260.8464,14.98,13.84,47.84626,-54.09684
2020-09-27 18:09:01+00:00,266.7398,14.99,13.84,47.84626,-54.09684
2020-09-27 18:19:01+00:00,273.6031,14.99,13.6,47.84626,-54.09684
2020-09-27 18:29:01+00:00,279.6647,14.94,13.6,47.84626,-54.09684
2020-09-27 18:39:01+00:00,284.8264,14.9,13.6,47.84626,-54.09684
2020-09-27 18:49:01+00:00,291.2997,14.91,13.6,47.84626,-54.09684
2020-09-27 18:59:01+00:00,295.4564,14.9,13.6,47.84626,-54.09684
2020-09-27 19:09:01+00:00,297.1996,14.9,13.6,47.84626,-54.09684
2020-09-27 19:19:01+00:00,300.1564,14.9,13.6,47.84626,-54.09684
2020-09-27 19:29:01+00:00,304.5597,14.9,13.6,47.84626,-54.09684
2020-09-27 19:39:01+00:00,305.0264,14.93,13.6,47.84626,-54.09684
2020-09-27 19:49:01+00:00,307.493,14.92,13.6,47.84626,-54.09684
2020-09-27 19:59:01+00:00,311.978,14.94,13.6,47.84626,-54.09684
2020-09-27 20:09:01+00:00,314.173,14.93,13.6,47.84626,-54.09684
2020-09-27 20:19:01+00:00,314.2513,14.93,13.21,47.84626,-54.09684
2020-09-27 20:29:01+00:00,317.7863,14.94,13.21,47.84626,-54.09684
2020-09-27 20:39:01+00:00,324.4064,14.95,13.21,47.84626,-54.09684
2020-09-27 20:49:01+00:00,325.6364,14.95,13.21,47.84626,-54.09684
2020-09-27 20:59:01+00:00,325.4896,14.91,13.21,47.84626,-54.09684
2020-09-27 21:09:01+00:00,329.033,14.93,13.21,47.84626,-54.09684
2020-09-27 21:19:01+00:00,330.2546,14.92,12.97,47.84626,-54.09684
2020-09-27 21:29:01+00:00,330.918,14.93,12.97,47.84626,-54.09684
2020-09-27 21:39:01+00:00,330.2413,14.94,12.97,47.84626,-54.09684
2020-09-27 21:49:01+00:00,331.0396,14.93,12.97,47.84626,-54.09684
2020-09-27 21:59:01+00:00,326.6763,14.9,12.97,47.84626,-54.09684
2020-09-27 22:09:01+00:00,323.6329,14.91,12.97,47.84626,-54.09684
2020-09-27 22:19:01+00:00,321.8213,14.9,12.81,47.84626,-54.09684
2020-09-27 22:29:01+00:00,318.1763,14.9,12.81,47.84626,-54.09684
2020-09-27 22:39:01+00:00,313.2897,14.9,12.81,47.84626,-54.09684
2020-09-27 22:49:01+00:00,309.7664,14.9,12.81,47.84626,-54.09684
2020-09-27 22:59:01+00:00,306.1214,14.9,12.81,47.84626,-54.09684
2020-09-27 23:09:01+00:00,299.9864,14.9,12.81,47.84626,-54.09684
2020-09-27 23:19:01+00:00,292.7297,14.9,12.73,47.84626,-54.09684
2020-09-27 23:29:01+00:00,288.4781,14.9,12.73,47.84626,-54.09684
2020-09-27 23:39:01+00:00,282.4681,14.9,12.73,47.84626,-54.09684
2020-09-27 23:49:01+00:00,275.7164,14.9,12.73,47.84626,-54.09684
2020-09-27 23:59:01+00:00,270.1864,14.9,12.73,47.84626,-54.09684
